Regional Weather Roundup
Issued by NWS Northern Indiana

Home | Current Version | Previous Version | Graphics & Text | Print | Product List | Glossary On
Versions: 1 2 3 4 5 6 7 8 9 10 11 12 13 14 15 16 17 18 19 20 21 22 23 24 25 26 27 28 29 30 31 32 33 34 35 36 37 38 39 40 41 42 43 44 45 46 47 48 49 50
909
ASUS43 KIWX 072000
RWRIWX

KIWX WEATHER ROUNDUP
NATIONAL WEATHER SERVICE NORTHERN INDIANA
300 PM EST SUN FEB 07 2016

NOTE: "FAIR" INDICATES FEW OR NO CLOUDS BELOW 12,000 FEET WITH NO
SIGNIFICANT WEATHER AND/OR OBSTRUCTIONS TO VISIBILITY.

* THESE STATIONS ARE NOT UNDER NWS QUALITY CONTROL. THEY ALSO MAY NOT
  REPORT WEATHER SUCH AS PRECIPITATION OR FOG.

INZ001>027-072100-
NORTHERN INDIANA

CITY           SKY/WX    TMP DP  RH WIND       PRES   REMARKS
GARY*          PTSUNNY   46  28  49 SW17G35   29.75S
SOUTH BEND     PTSUNNY   44  29  55 SW18G28   29.74F
GOSHEN         CLOUDY    46  31  55 S22       29.74F
ANGOLA*        SUNNY     45  32  61 SW15      29.75F
FORT WAYNE     CLOUDY    47  29  49 SW18G26   29.79F
PERU/GRISSOM   MOSUNNY   51  29  44 SW23G31   29.76F

$$
INZ028>050-072100-
CENTRAL INDIANA

CITY           SKY/WX    TMP DP  RH WIND       PRES   REMARKS
LAFAYETTE      SUNNY     50  29  44 SW20G31   29.79F
KOKOMO*          N/A     52  28  40 SW18G24   29.79F
MUNCIE*        MOSUNNY   52  29  41 SW16G32   29.81F
INDIANAPOLIS   PTSUNNY   52  24  33 SW23G32   29.82F

$$
MIZ043>046-050>051-056>058-064>065-071>073-077>080-072100-
SOUTHWEST LOWER MICHIGAN

CITY           SKY/WX    TMP DP  RH WIND       PRES   REMARKS
BATTLE CREEK   CLOUDY    45  29  53 S21G31    29.71F
BENTON HARBOR  CLOUDY    44  30  57 SW15      29.73F
COLDWATER*     CLOUDY    45  30  56 S13G20    29.73F
HILLSDALE*     CLOUDY    44  29  55 S14       29.74F
HOLLAND        CLOUDY    43  31  62 SW22G30   29.70F
GRAND RAPIDS   CLOUDY    45  30  55 SW16G23   29.69F
KALAMAZOO      PTSUNNY   46  30  53 S14       29.71F
STURGIS*       CLOUDY    43  30  60 SW17      29.72F
THREE RIVERS*  FAIR      46  32  58 SW13G22   29.73F

$$
OHZ001>008-015>018-024>025-072100-
NORTHWEST OHIO

CITY           SKY/WX    TMP DP  RH WIND       PRES   REMARKS
DEFIANCE       CLOUDY    49  31  49 S16G22    29.80F
FINDLAY        SUNNY     51  29  42 SW25G33   29.83F
TOLEDO EXPRESS CLOUDY    49  29  46 S15G26    29.80F
TOLEDO METCALF SUNNY     51  30  44 SW24G33   29.81F
LIMA           SUNNY     49  29  46 S17G26    29.84F

$$
AND FOR LAKE MICHIGAN COASTAL AND OPEN LAKE BUOY OBSERVATIONS

STATION/POSITION TEMP    WIND        PRES    VSBY  WAVE
                 AIR SEA DIR/SP/G                  HT/PER
                 (F)     (DEG/KT/KT) (MB)    (MI)  (FT/S)
CALUMET HARBOR    44     210/ 15/ 22 1006.3F
MICHIGAN CITY     44     180/ 23/ 26   N/A
BURNS HARBOR      45     220/ 17/ 24 1007.8F
SAINT JOSEPH      39     180/  8/ 12 1008.1F

$$
&&




USA.gov is the U.S. government's official web portal to all federal, state and local government web resources and services.